Simultaneous Nadir Overpasses (SNOs) Predictions

Prediction of SNOs between AQUA and METOP-A Satellite Orbit:

Table of predicted SNOs for the next 14.0 days since TLE Epoch: 4/1/2016
Index Date (AQUA) Time (AQUA) Lat,Lon (AQUA) SZA (AQUA ) Date (METOP-A) Time (METOP-A) Lat,Lon (METOP-A) SZA (METOP-A ) Distance(km) Time Diff (sec)
1 04/02/2016 00:04:28 -73.25, -5.64 111.78 04/02/2016 00:03:21 -73.20, -8.26 111.72 84.57 67
2 04/02/2016 00:54:08 73.90, 160.60 68.91 04/02/2016 00:53:46 73.91, 160.72 68.92 3.61 22
3 04/02/2016 01:43:35 -73.97, -31.90 111.04 04/02/2016 01:44:27 -73.97, -31.81 111.05 2.98 52
4 04/04/2016 19:38:49 -73.45, 60.37 112.65 04/04/2016 19:37:40 -73.39, 58.58 112.63 57.30 69
5 04/04/2016 20:28:25 73.90,-132.96 67.82 04/04/2016 20:28:09 73.91,-132.89 67.83 2.31 16
6 04/04/2016 21:17:52 -73.96, 34.54 112.13 04/04/2016 21:18:50 -73.97, 34.59 112.13 1.72 58
7 04/07/2016 15:13:11 -73.67, 126.34 113.49 04/07/2016 15:11:59 -73.64, 125.54 113.48 25.38 72
8 04/07/2016 16:02:43 73.91, -66.56 66.77 04/07/2016 16:02:33 73.90, -66.51 66.75 2.33 10
9 04/07/2016 16:52:10 -73.97, 100.95 113.19 04/07/2016 16:53:14 -73.96, 100.98 113.20 1.05 64
10 04/10/2016 10:47:32 -73.84,-167.61 114.35 04/10/2016 10:46:19 -73.83,-167.61 114.35 1.73 73
11 04/10/2016 11:37:00 73.88, -0.07 65.69 04/10/2016 11:36:57 73.89, -0.13 65.69 1.73 3
12 04/10/2016 12:26:27 -73.94, 167.45 114.27 04/10/2016 12:27:38 -73.96, 167.36 114.26 3.35 71
13 04/13/2016 06:21:48 -73.82,-101.15 115.40 04/13/2016 06:20:42 -73.81,-101.24 115.40 3.00 66
14 04/13/2016 07:11:17 73.92, 66.27 64.70 04/13/2016 07:11:19 73.93, 66.37 64.70 2.91 2




NCC Satellite Simultaneous Nadir Overpasses (SNOs) Prediction Service
